STARLINK-1465, 45731

Orbit data source: Space-Track

STARLINK-1465, 45731 is a payload satellite owned by SpaceX/Seattle (US) in LEO that was launched on Sat, 13 Jun 2020 UTC via an FALCON 9 launch vehicle from the Air Force Eastern Test Range (AFETR). Payload-class satellites include a variety of spacecraft equipped with specific instruments for various scientific and technological missions. These include communications satellites like Starlink; space stations such as the ISS; scientific satellites like the Hubble; Earth observation satellites from companies like Planet Labs, Umbra, and HawkEye 360; GPS; miniature CubeSats for education and research; and military/defense satellites.

Loading next visibility...
Identifier
45731, 2020-038B
Orbit
LEO
Country
Flag of USUS
Related business
Manufacturer
SpaceX/Seattle
Mission
Partially operational Commercial Communications
Bus & Motor
STARLINK, Unknown motor
Mass
260 kg wet, ~248 kg dry
Launch date (UTC)
2020-06-13 (6 years ago)
Launch vehicle
FALCON 9
Launch site
Air Force Eastern Test Range (AFETR)
Object type
Payload
Rocket body
Debris
Shape & HBR
Box + 1 Pan, 10.1 m
Radar Cross Section
13.562 m², Large (>1 m²)

Expand to show TLE details & history
Last TLE update: 2 days ago

TLE from 2 days ago
0 STARLINK-1465
1 45731U 20038B   26171.15386950  .00054073  00000-0  45227-3 0  9999
2 45731  53.0439  84.7913 0002413 109.7530 250.3746 15.69489988332364
Epoch: 2026-06-20T03:41Z
TLE epoch observation values (Epoch: 2026-06-20T03:41:34.324Z)
Latitude
-0.00009°
Longitude
121.02564°
Altitude
361.805 km
Speed
7.693 km/s
True Right ascension
05h 39m 09s
True Declination
0° 00' 00"
Sunlit
Object was in daylight at epoch
Visualization orbit readout
Latitude
Unknown
Longitude
Unknown
Altitude
Unknown
Speed
Unknown
Apparent Right ascension
Unknown
Apparent Declination
Unknown
Sunlit
N/A
Visualization observer readout
Local Sidereal Time
21:48:32
Azimuth
Unknown
Elevation
Unknown
Doppler factor
Unknown
Orbital elements
Apogee altitude
362.262 km
Perigee altitude
359.01 km
Semi-major axis
6,738.773 km
Eccentricity
0.00024
Inclination
53.0439°
RAAN
84.7913°
Arg. of periapsis
109.753°
True anomaly
250.34856°
Mean anomaly
250.3746°
Eccentric anomaly
250.36158°
Mean motion
3.92348 °/min
Orbital period
91.76 mins
BSTAR
0.00045227
Loading maneuver chart data...
Computing Atmospheric mass density...

Documentation

Showing up to 5 results
|